PHOG

Kahului Airport

Airport
ICAO code
PHOG
IATA Code
OGG
Summary
ICAO Region
NAM
ICAO Territory
Location

Kahului, Hawaii

Serving
Kahului
Elevation
54 ft
Coordinates
20° 53' 47" N , 156° 26' 3" W
KCC
Airport BS
Bird Strike
Metar
Observation
PHOG 090554Z 06011G21KT 10SM FEW033 SCT045 BKN055 22/16 A3014 RMK AO2 SLP210 60000 T02220156 10267 20222 53014
Station
Kahului, Kahului Airport
Date/Time
2023-02-09 05:54:00
Wind direction
60°
Wind speed
11 kts
Lowest cloud amount
few clouds
Temperature
22.2°C
Dew point
15.6°C
Humidity
66%
Weather condition
n/a

Description

Kahului Airport is a regional airport in the state of Hawaii, located east of the Kahului CDP in Maui County on the island of Maui near Haleakala.

Climatology

Tropical Savanna climate (Köppen climate classification As) - monthly mean temperature above 18°C in every month of the year and a pronounced dry season.

Runways

Designator Length Width Surface Rops
5/23 1521 46 ASP Yes/Yes
2/20 2132 46 ASP Yes/Yes

Airport map

Aerial View

SKYbrary Partners:

Safety knowledge contributed by: